Regional Weather Roundup
Issued by NWS

Home | Current Version | Previous Version | Text Only | Print | Product List | Glossary On
Versions: 1 2 3 4 5 6 7 8 9 10 11 12 13 14 15 16 17 18 19 20 21 22 23 24 25 26 27 28 29 30 31 32 33 34 35 36 37 38 39 40 41 42 43 44 45 46 47 48 49 50
000
ASUS43 KDTX 240601
RWRMI
MICHIGAN HOURLY REGIONAL WEATHER ROUNDUP
NATIONAL WEATHER SERVICE DETROIT/PONTIAC MI
200 AM EDT WED AUG 24 2016

NOTE: "FAIR" INDICATES FEW OR NO CLOUDS BELOW 12,000 FEET WITH NO
SIGNIFICANT WEATHER AND/OR OBSTRUCTION TO VISIBILITY.

MIZ047>049-052>055-059>063-066>070-074>076-081>083-240700-
SOUTHEAST LOWER MICHIGAN

CITY           SKY/WX    TMP DP  RH WIND       PRES   REMARKS
ADRIAN         CLEAR     63  60  90 SW3       30.19S
6HR MIN TEMP:  62; 6HR MAX TEMP:  74;

ALMA           CLEAR     64  62  93 S5        30.14S
ANN ARBOR      FOG       55  55 100 CALM      30.17F VSB 3/4
BAD AXE        CLEAR     62  58  89 S5        30.15F
CARO           CLOUDY    58  58  98 CALM      30.15F
DETROIT CITY   CLEAR     67  63  87 S5        30.18S
6HR MIN TEMP:  67; 6HR MAX TEMP:  76;

DETROIT        PTCLDY    67  62  84 S6        30.18F
6HR MIN TEMP:  67; 6HR MAX TEMP:  77;

FLINT          CLEAR     67  59  75 S6        30.16F
6HR MIN TEMP:  66; 6HR MAX TEMP:  78;

GROSSE ILE     CLEAR     71  63  75 SW6       30.17F
6HR MIN TEMP:  71; 6HR MAX TEMP:  76;

HILLSDALE      CLEAR     62  58  87 S5        30.18S
6HR MIN TEMP:  51; 6HR MAX TEMP:  84;

HOWELL         CLEAR     62  59  88 S3        30.17F
6HR MIN TEMP:  62; 6HR MAX TEMP:  74;


CITY           SKY/WX    TMP DP  RH WIND       PRES   REMARKS
JACKSON        CLEAR     65  60  84 S7        30.17F
6HR MIN TEMP:  64; 6HR MAX TEMP:  75;

LAMBERTVILLE   CLEAR     65  60  85 S3        30.18F
6HR MIN TEMP:  64; 6HR MAX TEMP:  76;

LANSING        CLEAR     66  58  75 S8        30.15F
6HR MIN TEMP:  65; 6HR MAX TEMP:  75;

LAPEER         NOT AVBL
MASON          CLEAR     63  58  86 SE5       30.16F
MONROE         CLEAR     65  61  85 S6        30.17S
6HR MIN TEMP:  62; 6HR MAX TEMP:  75;

MT. CLEMENS    CLEAR     65  63  94 S7        30.16S
6HR MIN TEMP:  65; 6HR MAX TEMP:  74;

PONTIAC        CLEAR     65  59  81 CALM      30.18S
6HR MIN TEMP:  65; 6HR MAX TEMP:  76;

PORT HURON     CLEAR     61  61 100 S3        30.18F
TRI CITIES     CLEAR     66  61  84 S8        30.14F
6HR MIN TEMP:  66; 6HR MAX TEMP:  75;

MIDLAND        FAIR      65  59  81 S6        30.12F
6HR MIN TEMP:  63; 6HR MAX TEMP:  75;

TROY           CLEAR     68  61  77 CALM      30.19F
SAGINAW HB     CLEAR     63  59  88 S5        30.13F
$$
MIZ043>046-050>051-056>058-064>065-071>073-077>080-240700-
SOUTHWEST LOWER MICHIGAN

CITY           SKY/WX    TMP DP  RH WIND       PRES   REMARKS
BATTLE CREEK   CLEAR     63  60  90 S8        30.15F
6HR MIN TEMP:  63; 6HR MAX TEMP:  72;

BENTON HARBOR  MOCLDY    66  61  84 SE5       30.11F
6HR MIN TEMP:  66; 6HR MAX TEMP:  76;

BIG RAPIDS     CLEAR     61  59  94 CALM      30.10F
6HR MIN TEMP:  60; 6HR MAX TEMP:  74;

COLDWATER      CLEAR     63  61  93 SE5       30.16F
6HR MIN TEMP:  62; 6HR MAX TEMP:  73;

FREMONT        FAIR      64  60  87 S3        30.09F
HOLLAND        CLEAR     64  60  87 S7        30.11F
6HR MIN TEMP:  64; 6HR MAX TEMP:  74;

GRAND RAPIDS   CLEAR     63  58  83 S8        30.12F
6HR MIN TEMP:  63; 6HR MAX TEMP:  76;

IONIA          FAIR      62  57  81 S6        30.13F
6HR MIN TEMP:  62; 6HR MAX TEMP:  74;

KALAMAZOO      CLEAR     66  59  78 SE5       30.13F
6HR MIN TEMP:  66; 6HR MAX TEMP:  76;

LUDINGTON      CLEAR     65  62  90 S6        30.05F
6HR MIN TEMP:  65; 6HR MAX TEMP:  73;

MARSHALL       CLEAR     64  61  88 S5        30.16S
MOUNT PLEASANT CLEAR     65  60  85 CALM      30.12S
6HR MIN TEMP:  65; 6HR MAX TEMP:  76;

MUSKEGON       CLEAR     67  61  81 SE7       30.09F
6HR MIN TEMP:  67; 6HR MAX TEMP:  75;

SOUTH HAVEN    CLEAR     68  63  84 S6        30.11F
$$
MIZ016>042-240700-
NORTHERN LOWER MICHIGAN

CITY           SKY/WX    TMP DP  RH WIND       PRES   REMARKS
ALPENA         CLEAR     67  59  75 SW6       30.11S
6HR MIN TEMP:  66; 6HR MAX TEMP:  81;

BEAVER ISLAND  CLOUDY    69  61  76 S8        30.05F
6HR MIN TEMP:  69; 6HR MAX TEMP:  73;

BELLAIRE       CLEAR     67  59  75 CALM      30.07F
6HR MIN TEMP:  63; 6HR MAX TEMP:  77;

CADILLAC       CLEAR     65  60  84 S7        30.10F
CHARLEVOIX     CLEAR     68  59  73 S5        30.09F
6HR MIN TEMP:  67; 6HR MAX TEMP:  75;

FRANKFORT      CLOUDY    69  60  72 S8        30.05F
GAYLORD        CLEAR     65  58  78 S6        30.10F
6HR MIN TEMP:  65; 6HR MAX TEMP:  75;

GRAYLING       CLEAR     58  58  97 CALM      30.11F
HARBOR SPRINGS CLOUDY    67  60  77 S5        30.07F
HOUGHTON LAKE  CLEAR     65  59  81 S6        30.12F
6HR MIN TEMP:  58; 6HR MAX TEMP:  74;

MANISTEE       PTCLDY    63  60  90 E3        30.06F
OSCODA         CLEAR     60  59  96 SW3       30.12S
6HR MIN TEMP:  60; 6HR MAX TEMP:  75;

PELLSTON       CLOUDY    63  57  81 SE3       30.07F
6HR MIN TEMP:  61; 6HR MAX TEMP:  74;

ROGERS CITY    CLEAR     65  58  77 S5        30.10F
TRAVERSE CITY  CLEAR     67  59  75 S3        30.05F
6HR MIN TEMP:  67; 6HR MAX TEMP:  77;

$$
MIZ007>008-015-240700-
EASTERN UPPER MICHIGAN

CITY           SKY/WX    TMP DP  RH WIND       PRES   REMARKS
KINROSS        CLEAR     65  60  84 S7        30.06F
6HR MIN TEMP:  65; 6HR MAX TEMP:  75;

MACKINAC ISLAN CLEAR     67  59  74 S9        30.05F
6HR MIN TEMP:  67; 6HR MAX TEMP:  72;

NEWBERRY       CLEAR     66  63  90 S8        30.02F
6HR MIN TEMP:  66; 6HR MAX TEMP:  71;

S. S. MARIE    CLEAR     65  60  84 SE6       30.05F
6HR MIN TEMP:  64; 6HR MAX TEMP:  76;

$$
MIZ004>006-011>014-085-240700-
CENTRAL UPPER MICHIGAN

CITY           SKY/WX    TMP DP  RH WIND       PRES   REMARKS
MANISTIQUE     PTCLDY    67  65  92 S6        30.00F
6HR MIN TEMP:  65; 6HR MAX TEMP:  67;

ESCANABA       PTCLDY    68  65  90 S6        29.98F
6HR MIN TEMP:  68; 6HR MAX TEMP:  72;

MENOMINEE      CLOUDY   N/A N/A N/A S7        29.99F
SAWYER-GWINN   CLOUDY    64  61  92 S12       29.98F
6HR MIN TEMP:  64; 6HR MAX TEMP:  75;

$$
MIZ001>003-009>011-084-240700-
WESTERN UPPER MICHIGAN

CITY           SKY/WX    TMP DP  RH WIND       PRES   REMARKS
IRON MOUNTAIN  CLOUDY    64  60  87 SE5       29.97F
6HR MIN TEMP:  64; 6HR MAX TEMP:  75;

HOUGHTON       CLOUDY    67  61  81 S5        29.91F
6HR MIN TEMP:  67; 6HR MAX TEMP:  79;

COPPER HARBOR    N/A     72  63  73 W8G18     29.89F
6HR MIN TEMP:  71; 6HR MAX TEMP:  77;

IRONWOOD       CLOUDY    70  62  76 S10       29.88F
6HR MIN TEMP:  70; 6HR MAX TEMP:  77;

$$

ABBREVIATIONS USED IN REMARKS
   TC - TEMPERATURE IN CELSIUS
  WCI - WIND CHILL INDEX
   HX - HEAT INDEX
  VSB - VISIBILITY





USA.gov is the U.S. government's official web portal to all federal, state and local government web resources and services.